Location: Newark
(42.8481°N, 0.4872°E)
Time: 22:17:18
(UTC+00:00)

Transit 2A Rocket - Pass Details

Date: 28 October 2020
Orbit: 588 x 914 km, 66.7° (Epoch: 29 November)

Event Time Altitude Azimuth Distance (km) Brightness Sun altitude
Rises 17:45:53 0° 332° (NNW) 3,304 8.5 -9.8°
Reaches altitude 10° 17:48:30 10° 338° (NNW) 2,317 7.7 -10.3°
Maximum altitude 17:53:35 47° 53° (NE) 944 5.1 -11.2°
Drops below altitude 10° 17:58:12 10° 127° (SE) 2,098 6.9 -12.1°
Enters shadow 17:58:59 - 130° (SE) 2,394 7.2 -12.2°
Sets 18:00:28 0° 134° (SE) 2,962 - -12.5°
